This demonstration page uses our WeatherBlox Daily Observations layout. Learn more.

Hourly Observations for June 14, 2017

Temp ( °F °C ) Dew Point ( °F °C ) Humidity (%) Winds ( mph kmh ) Pressure ( in mb ) Visibility ( mi km ) Precip ( " mm )
12:08 am 00:08 Mostly Clear 71 21.7 61 16.1 71 71 WNW 15 24 29.71 1006 10 16.0934 0 0
12:54 am 00:54 Mostly Clear 72 22.2 59 15 64 64 W 9 15 29.74 1007 10 16.0934 0 0
1:54 am 01:54 Mostly Clear 70 21.1 61 16.1 73 73 Calm 29.7 1006 10 16.0934 0 0
2:54 am 02:54 Clear 72 22.2 59 15 64 64 SE 12 19 29.67 1005 10 16.0934 0 0
3:52 am 03:52 Mostly Cloudy with Nearby Thunderstorms 70 21 61 16 73 73 S 13 20 29.68 1005 10 16.0934 0 0
3:54 am 03:54 Mostly Cloudy with Nearby Thunderstorms 70 21.1 60 15.6 71 71 S 15 24 29.72 1006 10 16.0934 0 0
4:19 am 04:19 Windy with Storms Likely 68 20 62 16.7 81 81 SE 22 35 29.68 1005 10 16.0934 0.01 0.254
4:47 am 04:47 Mostly Cloudy 70 21.1 61 16.1 73 73 SE 10 17 29.65 1004 10 16.0934 0.02 0.508
4:54 am 04:54 Mostly Cloudy with Thunderstorms 70 21.1 61 16.1 73 73 Calm 29.69 1005 10 16.0934 0.02 0.508
5:10 am 05:10 Mostly Cloudy with Nearby Thunderstorms 71 21.7 59 15 66 66 N 9 15 29.68 1005 10 16.0934 0 0
5:17 am 05:17 Mostly Cloudy 69 20.6 61 16.1 76 76 NE 7 11 29.71 1006 10 16.0934 0 0
5:42 am 05:42 Cloudy with Nearby Thunderstorms 68 20 63 17.2 84 84 N 26 43 29.8 1009 10 16.0934 0 0
5:54 am 05:54 Cloudy with Nearby Thunderstorms 68 20 60 15.6 76 76 NNW 22 35 29.79 1009 10 16.0934 0 0
6:03 am 06:03 Windy with Storms Likely 66 18.9 59 15 78 78 N 35 56 29.77 1008 8 12.87472 0 0.0254
6:54 am 06:54 Cloudy with Light Thunderstorms 63 17.2 61 16.1 93 93 NNW 12 19 29.83 1010 6 9.65604 0.22 5.588
7:07 am 07:07 Cloudy with Rain 63 17.2 61 16.1 93 93 ENE 9 15 29.8 1009 4 6.43736 0.05 1.27
7:17 am 07:17 Cloudy with Nearby Thunderstorms 64 17.8 61 16.1 90 90 E 10 17 29.77 1008 8 12.87472 0.06 1.524
7:32 am 07:32 Mostly Cloudy with Light Rain 64 17.8 62 16.7 93 93 ESE 5 7 29.77 1008 10 16.0934 0.06 1.524
7:54 am 07:54 Mostly Sunny 64 17.8 62 16.7 93 93 SSE 6 9 29.79 1009 10 16.0934 0.06 1.524
8:54 am 08:54 Cloudy 66 18.9 62 16.7 87 87 ESE 3 6 29.8 1009 10 16.0934 0 0
9:54 am 09:54 Sunny 70 21.1 62 16.7 76 76 SSE 10 17 29.79 1009 10 16.0934 0 0
10:54 am 10:54 Sunny 75 23.9 66 18.9 74 74 S 9 15 29.79 1009 10 16.0934 0 0
11:54 am 11:54 Sunny 79 26.1 67 19.4 67 67 SSW 10 17 29.79 1009 10 16.0934 0 0
12:54 pm 12:54 Partly Cloudy 82 27.8 66 18.9 58 58 SSW 13 20 29.8 1009 10 16.0934 0 0
1:54 pm 13:54 Partly Cloudy 84 28.9 64 17.8 51 51 W 10 17 29.79 1009 10 16.0934 0 0
2:54 pm 14:54 Mostly Sunny 87 30.6 64 17.8 46 46 WSW 12 19 29.78 1008 10 16.0934 0 0
3:54 pm 15:54 Sunny 87 30.6 62 16.7 43 43 WSW 14 22 29.77 1008 10 16.0934 0 0
4:54 pm 16:54 Sunny 88 31.1 61 16.1 40 40 W 12 19 29.77 1008 10 16.0934 0 0
5:54 pm 17:54 Sunny 88 31.1 61 16.1 40 40 W 13 20 29.76 1008 10 16.0934 0 0
6:54 pm 18:54 Sunny 87 30.6 60 15.6 40 40 WNW 12 19 29.77 1008 10 16.0934 0 0
7:54 pm 19:54 Sunny 85 29.4 58 14.4 40 40 W 7 11 29.79 1009 10 16.0934 0 0
8:54 pm 20:54 Sunny 75 23.9 63 17.2 66 66 S 3 6 29.8 1009 10 16.0934 0 0
9:54 pm 21:54 Clear 76 24.4 59 15 56 56 Calm 29.81 1009 10 16.0934 0 0
10:54 pm 22:54 Clear 74 23.3 64 17.8 71 71 S 3 6 29.81 1010 10 16.0934 0 0
11:54 pm 23:54 Clear 70 21.1 63 17.2 79 79 Calm 29.82 1010 10 16.0934 0 0

Powered by AerisWeather